Home   Weather   Makati   Past weeks

Flag for Philippines Past Weather in Makati, Philippines — Yesterday and Last 2 Weeks

Now
79 °F

Passing clouds.


Feels Like: 82 °F
Forecast: 76 / 92 °F
Wind: 5 mph from Southeast

Location: National Airport

Current Time: Feb 23, 2017 at 1:38:02 am

Latest Report: Feb 23, 2017 at 1:00 am


Visibility: N/A

Pressure: 29.95 "Hg

Humidity: 79%

Dew Point: 72 °F

Location of MakatiLocation

Past Weather in Makati — Graph

°F

Makati Temperature Yesterday

Maximum temperature yesterday: 90 °F (at 1:00 pm)
Minimum temperature yesterday: 75 °F (at 7:00 am)
Average temperature yesterday: 82 °F

High & Low Weather Summary for the Past Weeks

 TemperatureHumidityPressure
High90 °F (Feb 20, 3:00 pm)100% (Feb 9, 4:00 am)30.15 "Hg (Feb 9, 4:00 am)
Low72 °F (Feb 13, 11:00 pm)40% (Feb 14, 11:00 am)29.77 "Hg (Feb 8, 4:00 pm)
Average79 °F72%29.97 "Hg
* Reported Feb 8 12:00 am — Feb 23 12:00 am, Makati, Weather by CustomWeather, © 2017

Note: Actual official high and low records may vary slightly from our data, if they occured in-between our weather recording intervals... More about our weather records

Advertising

Makati Weather History for the Previous 24 Hours

Scroll right to see more
 ConditionsComfort  
Time TempWeatherWind HumidityBarometerVisibility
12:00 am
Thu, Feb 23
79 °FPassing clouds.5 mph79%29.95 "HgN/A
11:00 pm
Wed, Feb 22
79 °FPassing clouds.5 mph79%29.95 "HgN/A
10:00 pm79 °FPassing clouds.3 mph79%29.95 "HgN/A
9:00 pm79 °FPassing clouds.5 mph74%29.95 "HgN/A
8:00 pm81 °FPassing clouds.7 mph70%29.95 "HgN/A
7:00 pm82 °FPassing clouds.8 mph66%29.92 "HgN/A
6:00 pm84 °FScattered clouds.9 mph66%29.92 "HgN/A
5:00 pm86 °FScattered clouds.10 mph62%29.89 "HgN/A
4:00 pm88 °FScattered clouds.12 mph55%29.86 "HgN/A
3:00 pm88 °FPartly sunny.12 mph59%29.86 "HgN/A
2:00 pm88 °FScattered clouds.10 mph59%29.86 "HgN/A
1:00 pm90 °FPassing clouds.12 mph52%29.89 "HgN/A
12:00 pm88 °FScattered clouds.10 mph55%29.92 "HgN/A
11:00 am88 °FPassing clouds.9 mph55%29.95 "HgN/A
10:00 am86 °FPassing clouds.8 mph59%29.95 "HgN/A
9:00 am84 °FPassing clouds.5 mph58%29.95 "HgN/A
8:00 am81 °FScattered clouds.1 mph70%29.95 "HgN/A
7:00 am75 °FPassing clouds.No wind89%29.92 "HgN/A
6:00 am77 °FPassing clouds.3 mph83%29.92 "HgN/A
5:00 am77 °FPassing clouds.6 mph83%29.89 "HgN/A
4:00 am79 °FPassing clouds.9 mph74%29.92 "HgN/A
3:00 am79 °FPassing clouds.7 mph70%29.92 "HgN/A
2:00 am79 °FPassing clouds.9 mph70%29.95 "HgN/A
1:00 am79 °FPassing clouds.9 mph74%29.95 "HgN/A
Weather by CustomWeather, © 2017

See weather overviewHow to use our weather pages